Weather History for Tekamah, NE

Change the Weather History Date:

Saturday, May 25, 2013

  Actual Average Record
Temperature  
Mean Temperature 65 °F -  
Max Temperature 75 °F 77 °F 103 °F (1967)
Min Temperature 57 °F 53 °F 43 °F (1979)
Growing Degree Days 15 (Base 50)    
Moisture  
Dew Point 57 °F    
Average Humidity 79    
Maximum Humidity 93    
Minimum Humidity 50    
Precipitation  
Precipitation 0.38 in - - ()
Sea Level Pressure  
Sea Level Pressure 30.03 in    
Wind  
Wind Speed 15 mph (SE)    
Max Wind Speed 23 mph    
Max Gust Speed 28 mph    
Visibility 7 miles    
Events Rain , Thunderstorm    
Averages and records for this station are not official NWS values.
T = Trace of Precipitation, MM = Missing Value Source: NWS Daily Summary

Daily Weather History Graph

Daily Weather History Graph

Search for Another Location

Airport:

Trip Planner

Search our weather history database for the weather conditions in past years. The results will help you decide how hot, cold, wet, or windy it might be!

Date:

Astronomy

May. 25, 2013 Rise Set
Actual Time 5:56 AM CDT 8:47 PM CDT
Civil Twilight 5:23 AM CDT 9:20 PM CDT
Nautical Twilight 4:42 AM CDT 10:02 PM CDT
Astronomical Twilight 3:54 AM CDT 10:50 PM CDT
Moon 9:36 PM CDT (5/25) 6:24 AM CDT (5/25)
Length of Visible Light 15h 57m
Length of Day
14h 51m
Full, 100% of the Moon is Illuminated
May 25
Full
May 31
Last Quarter
Jun 8
New
Jun 16
First Quarter
Jun 23
Full

Hourly Weather History & Observations

Time (CDT) Temp. Dew Point Humidity Pressure Visibility Wind Dir Wind Speed Gust Speed Precip Events Conditions
12:54 AM 64.9 °F 46.0 °F 50% 30.06 in 10.0 mi SE 20.7 mph - N/A   Overcast
1:54 AM 64.0 °F 46.0 °F 52% 30.02 in 10.0 mi SE 23.0 mph - N/A   Mostly Cloudy
2:38 AM 62.6 °F 48.2 °F 59% 30.06 in 6.0 mi SSE 18.4 mph 25.3 mph 0.01 in Rain , Thunderstorm Light Thunderstorms and Rain
2:46 AM 60.8 °F 50.0 °F 68% 30.04 in 2.5 mi SE 16.1 mph - 0.10 in Rain , Thunderstorm Heavy Thunderstorms and Rain
2:54 AM 61.0 °F 50.0 °F 67% 30.02 in 4.0 mi SE 17.3 mph - 0.16 in Rain , Thunderstorm Light Thunderstorms and Rain
3:26 AM 60.8 °F 51.8 °F 72% 30.03 in 10.0 mi SSE 15.0 mph - 0.02 in Rain , Thunderstorm Light Rain
3:35 AM 59.0 °F 51.8 °F 77% 30.02 in 10.0 mi SSE 13.8 mph - 0.02 in Rain Light Rain
3:42 AM 59.0 °F 51.8 °F 77% 30.01 in 9.0 mi SSE 16.1 mph - 0.02 in Rain , Thunderstorm Light Rain
3:54 AM 59.0 °F 52.0 °F 78% 29.99 in 9.0 mi South 9.2 mph - 0.02 in Rain , Thunderstorm Light Rain
4:02 AM 60.8 °F 51.8 °F 72% 30.07 in 10.0 mi West 10.4 mph 18.4 mph 0.00 in Rain Light Rain
4:10 AM 60.8 °F 51.8 °F 72% 30.08 in 10.0 mi NW 9.2 mph 27.6 mph 0.00 in Rain Light Rain
4:17 AM 60.8 °F 51.8 °F 72% 30.10 in 6.0 mi West 6.9 mph - 0.01 in Rain , Thunderstorm Light Rain
4:54 AM 59.0 °F 54.0 °F 83% 30.06 in 3.0 mi SE 11.5 mph - 0.07 in Rain , Thunderstorm Thunderstorms and Rain
4:59 AM 57.2 °F 53.6 °F 88% 30.08 in 2.5 mi SE 12.7 mph - 0.02 in Rain , Thunderstorm Thunderstorms and Rain
5:07 AM 57.2 °F 53.6 °F 88% 30.07 in 3.0 mi SE 11.5 mph - 0.03 in Rain , Thunderstorm Light Rain
5:17 AM 57.2 °F 53.6 °F 88% 30.07 in 2.5 mi SE 12.7 mph - 0.05 in Rain , Thunderstorm Rain
5:25 AM 57.2 °F 53.6 °F 88% 30.07 in 4.0 mi SE 11.5 mph - 0.07 in Rain , Thunderstorm Light Thunderstorms and Rain
5:40 AM 57.2 °F 53.6 °F 88% 30.04 in 4.0 mi ESE 10.4 mph - 0.10 in Rain Light Rain
5:54 AM 57.0 °F 55.0 °F 93% 30.02 in 5.0 mi SE 12.7 mph - 0.11 in Rain Light Rain
6:54 AM 57.9 °F 54.0 °F 87% 30.03 in 7.0 mi SE 6.9 mph - 0.01 in Rain Light Rain
7:38 AM 60.8 °F 53.6 °F 77% 30.07 in 9.0 mi SSE 9.2 mph - 0.01 in   Overcast
7:54 AM 60.1 °F 55.0 °F 83% 30.05 in 10.0 mi SE 11.5 mph - 0.01 in   Overcast
8:25 AM 59.0 °F 55.4 °F 88% 30.07 in 8.0 mi SE 13.8 mph - 0.00 in Rain Light Rain
8:41 AM 59.0 °F 55.4 °F 88% 30.06 in 8.0 mi SE 16.1 mph - 0.00 in Rain Light Rain
8:54 AM 60.1 °F 55.9 °F 86% 30.03 in 8.0 mi SSE 18.4 mph - 0.00 in   Mostly Cloudy
9:05 AM 60.8 °F 55.4 °F 82% 30.05 in 7.0 mi SSE 20.7 mph - N/A   Mostly Cloudy
9:44 AM 60.8 °F 57.2 °F 88% 30.04 in 6.0 mi SE 19.6 mph - N/A   Mostly Cloudy
9:54 AM 61.0 °F 57.9 °F 90% 30.01 in 5.0 mi SSE 18.4 mph - N/A   Mostly Cloudy
10:12 AM 60.8 °F 57.2 °F 88% 30.04 in 5.0 mi SSE 19.6 mph - N/A   Scattered Clouds
10:45 AM 64.4 °F 60.8 °F 88% 30.03 in 4.0 mi ENE 15.0 mph - N/A   Mostly Cloudy
10:54 AM 63.0 °F 60.1 °F 90% 30.00 in 4.0 mi ENE 13.8 mph - N/A   Mostly Cloudy
11:01 AM 64.4 °F 60.8 °F 88% 30.02 in 5.0 mi East 13.8 mph - N/A   Overcast
11:49 AM 66.2 °F 60.8 °F 83% 30.06 in 6.0 mi SE 12.7 mph - N/A   Haze
11:54 AM 64.9 °F 60.1 °F 84% 30.04 in 7.0 mi ESE 13.8 mph - N/A   Overcast
12:54 PM 66.0 °F 60.1 °F 81% 30.03 in 6.0 mi ESE 13.8 mph - N/A   Haze
1:54 PM 69.1 °F 62.1 °F 78% 30.01 in 9.0 mi ESE 12.7 mph - N/A   Mostly Cloudy
2:17 PM 71.6 °F 62.6 °F 73% 30.04 in 9.0 mi East 10.4 mph - N/A   Overcast
2:54 PM 72.0 °F 64.0 °F 76% 30.00 in 7.0 mi ESE 15.0 mph - N/A   Mostly Cloudy
3:50 PM 73.4 °F 64.4 °F 73% 30.02 in 6.0 mi ESE 13.8 mph 20.7 mph N/A   Haze
3:54 PM 73.9 °F 64.0 °F 71% 30.00 in 6.0 mi ESE 13.8 mph 20.7 mph N/A   Haze
4:04 PM 73.4 °F 64.4 °F 73% 30.02 in 6.0 mi SE 12.7 mph 20.7 mph N/A   Haze
4:12 PM 73.4 °F 64.4 °F 73% 30.02 in 6.0 mi ESE 13.8 mph - N/A   Haze
4:54 PM 73.9 °F 64.9 °F 73% 29.98 in 7.0 mi East 13.8 mph - N/A   Partly Cloudy
5:54 PM 73.0 °F 64.0 °F 73% 29.98 in 8.0 mi East 12.7 mph - N/A   Mostly Cloudy
6:08 PM 73.4 °F 64.4 °F 73% 30.00 in 8.0 mi East 11.5 mph - N/A   Scattered Clouds
6:54 PM 72.0 °F 64.0 °F 76% 29.96 in 8.0 mi East 11.5 mph - N/A   Overcast
7:54 PM 70.0 °F 62.1 °F 76% 29.96 in 8.0 mi East 13.8 mph - N/A   Overcast
8:54 PM 66.0 °F 60.1 °F 81% 29.98 in 8.0 mi East 11.5 mph - N/A   Overcast
9:54 PM 64.0 °F 59.0 °F 84% 30.01 in 7.0 mi East 6.9 mph - N/A   Mostly Cloudy
10:54 PM 63.0 °F 57.9 °F 84% 30.01 in 6.0 mi ESE 16.1 mph - N/A   Haze
11:54 PM 61.0 °F 57.9 °F 90% 29.97 in 6.0 mi ESE 16.1 mph - N/A   Partly Cloudy